This demonstration page uses our WeatherBlox Daily Observations layout. Learn more.

Left ArrowRight Arrow

Hourly Observations for December 18, 2021

Temp ( °F °C ) Dew Point ( °F °C ) Humidity (%) Winds ( mph kmh ) Pressure ( in mb ) Visibility ( mi km ) Precip ( " mm )
12:53 am 00:53 Clear -15 -26.1 -19 -28.3 82 82 E 5 7 30.42 1030 10 16 0.00 0.00
1:53 am 01:53 Clear -15 -26.1 -20 -28.9 77 77 E 3 6 30.40 1030 10 16 0.00 0.00
2:53 am 02:53 Clear -13 -25 -18 -27.8 78 78 E 5 7 30.38 1029 10 16 0.00 0.00
3:53 am 03:53 Clear -14 -25.6 -19 -28.3 78 78 ESE 5 7 30.36 1028 10 16 0.00 0.00
4:53 am 04:53 Clear -12 -24.4 -16 -26.7 81 81 E 6 9 30.33 1027 10 16 0.00 0.00
5:53 am 05:53 Clear -11 -23.9 -15 -26.1 82 82 E 6 9 30.31 1026 10 16 0.00 0.00
6:53 am 06:53 Clear -9 -22.8 -14 -25.6 78 78 E 3 6 30.30 1026 10 16 0.00 0.00
7:53 am 07:53 Clear -8 -22.2 -13 -25 78 78 E 6 9 30.26 1025 10 16 0.00 0.00
8:53 am 08:53 Sunny -7 -21.7 -12 -24.4 79 79 E 8 13 30.22 1024 10 16 0.00 0.00
9:53 am 09:53 Mostly Cloudy -5 -20.6 -11 -23.9 75 75 ENE 5 7 30.18 1022 10 16 0.00 0.00
10:53 am 10:53 Mostly Sunny -3 -19.4 -9 -22.8 75 75 E 6 9 30.14 1021 10 16 0.00 0.00
11:53 am 11:53 Cloudy 0 -17.8 -6 -21.1 76 76 E 7 11 30.09 1019 10 16 0.00 0.00
12:53 pm 12:53 Sunny 2 -16.7 -4 -20 76 76 E 8 13 30.05 1018 10 16 0.00 0.00
1:53 pm 13:53 Mostly Cloudy 5 -15 -1 -18.3 76 76 ENE 7 11 30.01 1016 10 16 0.00 0.00
2:53 pm 14:53 Cloudy 8 -13.3 1 -17.2 73 73 ENE 7 11 29.97 1015 10 16 0.00 0.00
3:53 pm 15:53 Cloudy 10 -12.2 4 -15.6 76 76 E 8 13 29.93 1014 10 16 0.00 0.00
4:53 pm 16:53 Cloudy 12 -11.1 6 -14.4 77 77 ENE 9 15 29.90 1012 10 16 0.00 0.00
5:53 pm 17:53 Cloudy 13 -10.6 7 -13.9 77 77 E 8 13 29.87 1012 10 16 0.00 0.00
6:53 pm 18:53 Mostly Cloudy 14 -10 8 -13.3 77 77 ENE 7 11 29.82 1010 10 16 0.00 0.00
7:53 pm 19:53 Partly Cloudy 15 -9.4 10 -12.2 80 80 ESE 6 9 29.80 1009 10 16 0.00 0.00
8:53 pm 20:53 Mostly Clear 15 -9.4 10 -12.2 80 80 E 3 6 29.76 1008 10 16 0.00 0.00
9:53 pm 21:53 Clear 17 -8.3 12 -11.1 80 80 WNW 5 7 29.72 1007 10 16 0.00 0.00
10:41 pm 22:41 Partly Cloudy 41 5 29 -1.7 62 62 SW 24 39 29.60 1002 10 16 0.00 0.00
10:53 pm 22:53 Mostly Cloudy 42 5.6 29 -1.7 60 60 SW 26 43 29.66 1004 10 16 0.00 0.00
11:53 pm 23:53 Cloudy 42 5.6 29 -1.7 60 60 SSW 26 43 29.65 1004 10 16 0.00 0.00

Powered by AerisWeather